Theta_e
331 331 331 331 331 330 327 322 318 319 323 326 329 331 330 329 329 333 337 337 336 334 331 329 325 324 328 329 330 330 330 328 323 322 321 321 322 323 321 316 319 326 329 330 332 332 331 332 332 331 331 331 330 329 329 328 325 320 312 309 309 308
331 331 331 331 332 331 329 323 319 318 320 323 327 328 326 328 332 335 337 336 336 335 331 329 327 325 324 325 327 329 330 329 325 324 323 323 324 325 325 320 317 320 325 329 331 331 332 332 332 330 329 331 331 330 329 327 324 321 315 312 310 309
331 331 331 331 332 331 329 324 320 320 319 320 324 326 325 330 335 336 337 335 335 334 332 330 329 327 324 322 322 325 329 329 327 324 324 325 326 326 326 324 320 317 322 329 330 331 332 332 331 329 329 331 331 330 329 328 326 323 318 314 312 311
331 331 331 331 331 332 329 324 321 320 319 318 321 324 326 332 336 337 337 334 333 333 333 331 329 329 326 323 321 323 327 328 327 324 324 326 326 326 326 326 323 320 323 327 328 329 331 331 330 329 329 329 329 329 330 330 329 327 322 317 316 314
331 331 331 331 331 332 330 326 322 320 319 318 320 324 328 333 336 338 336 333 332 332 332 331 329 329 328 326 323 324 327 327 326 324 324 326 326 326 326 326 325 323 324 326 326 328 330 330 330 330 328 326 328 330 331 331 330 330 326 321 319 318
330 331 331 331 331 332 331 327 322 320 319 318 320 325 330 332 335 337 335 332 331 331 332 331 329 330 329 328 326 326 328 327 326 324 323 326 327 326 326 326 327 326 326 326 327 329 330 331 331 330 327 326 328 331 332 331 330 330 327 322 320 320
330 331 331 331 331 331 332 328 322 319 319 319 323 328 330 331 333 336 335 331 330 331 332 331 330 331 329 328 328 329 329 328 326 324 323 326 327 326 327 326 327 327 327 328 329 330 331 331 331 330 328 327 329 331 332 331 330 330 327 322 321 321
330 330 331 331 331 331 331 328 323 320 319 321 326 329 329 330 333 333 332 330 330 331 331 330 330 332 330 328 329 327 326 323 323 323 322 325 327 326 327 327 327 327 327 329 330 331 331 331 331 331 330 329 330 331 330 330 330 330 328 325 323 321
331 331 331 331 331 331 331 328 324 322 321 323 328 330 329 331 332 332 331 330 331 331 331 329 329 330 329 330 329 323 321 319 319 321 321 324 327 326 326 326 327 326 326 326 327 328 331 332 331 331 332 330 331 331 329 330 331 330 329 326 323 321
332 332 332 332 332 331 331 329 326 324 322 324 327 329 330 332 332 332 331 331 331 331 330 328 328 330 330 330 327 321 320 321 320 322 323 324 325 325 325 325 325 325 326 326 325 327 330 331 330 330 331 330 330 330 330 330 330 330 329 326 324 323
333 333 332 333 332 331 331 330 328 326 324 324 327 329 331 332 333 332 331 331 332 331 329 329 329 329 330 329 326 323 323 324 324 325 327 327 325 325 325 326 325 324 327 328 328 329 330 331 330 329 329 329 329 328 329 329 329 330 329 326 325 326
334 334 333 333 333 332 332 332 330 328 325 326 329 331 332 333 333 332 332 331 331 329 329 330 329 329 330 328 328 327 326 326 326 327 328 328 328 328 328 329 328 327 328 330 330 330 331 331 330 328 329 328 328 328 328 328 328 329 329 326 325 325
335 334 334 334 334 333 333 333 332 330 327 328 331 332 333 333 333 333 332 332 330 328 328 330 329 330 330 328 329 330 329 327 327 327 328 328 328 330 330 330 330 329 330 330 331 331 331 331 330 329 329 329 329 328 327 327 328 330 329 326 325 325
336 335 335 335 335 334 334 334 333 331 330 329 331 332 332 333 333 332 332 332 330 328 329 330 330 330 330 329 329 330 331 330 327 327 328 329 329 330 331 331 331 331 330 331 331 331 330 330 329 329 330 330 330 329 327 326 328 330 330 326 326 326
337 337 336 336 336 335 334 334 333 332 331 331 331 332 332 332 332 332 332 332 331 330 329 330 330 330 330 330 330 330 332 330 328 328 329 331 330 330 332 331 331 331 330 331 331 331 330 330 330 329 329 329 330 329 327 327 328 329 329 328 327 326
338 338 337 337 336 335 335 335 334 333 333 332 332 333 332 332 332 332 332 332 331 330 330 330 330 330 330 331 332 332 331 330 328 328 329 331 331 331 332 332 332 331 331 332 332 331 331 330 330 330 330 329 330 330 329 329 329 329 329 329 327 327
338 338 338 337 337 335 335 335 335 334 333 333 333 333 332 333 333 333 332 332 331 330 330 330 330 330 331 331 332 331 330 329 329 329 328 329 330 331 332 332 332 332 332 332 332 331 331 330 330 330 330 330 330 330 329 329 329 329 329 329 328 327
339 339 339 337 336 336 336 336 335 335 334 333 333 333 333 333 334 333 332 332 332 331 331 330 330 329 330 331 331 331 330 329 330 331 329 328 329 331 332 332 332 332 331 332 331 331 331 330 330 329 330 330 330 329 328 329 328 329 329 329 328 327
339 339 339 336 336 336 336 335 335 335 335 334 333 333 333 333 333 333 333 333 332 332 331 330 329 328 329 331 330 330 331 330 330 330 329 329 329 331 332 332 332 331 331 331 331 331 331 330 329 329 329 329 329 327 327 328 328 329 329 328 328 328
340 339 338 336 336 336 336 335 336 336 335 334 333 333 333 332 333 333 332 332 332 332 331 330 329 327 327 329 329 330 331 331 330 328 327 328 330 331 332 331 332 331 331 331 331 331 331 330 329 329 329 328 327 326 326 326 327 328 328 327 327 328
339 337 337 337 335 335 335 335 336 336 334 333 333 333 333 331 332 332 332 332 332 332 331 331 329 327 327 328 329 330 331 331 329 326 327 328 329 332 332 332 332 332 331 331 331 331 331 331 330 328 328 327 326 326 326 326 326 327 327 327 327 328
337 336 337 336 333 333 335 335 335 335 334 333 333 334 333 332 331 331 331 331 331 331 330 330 329 328 328 327 329 330 331 331 328 326 328 329 329 331 332 332 331 331 331 331 330 330 330 330 329 328 327 327 326 326 327 327 326 326 326 327 327 327
336 336 338 337 334 334 335 335 334 334 333 333 332 332 333 332 331 331 331 332 332 331 330 329 328 328 328 326 329 331 330 330 328 326 329 329 328 329 331 332 331 330 331 330 330 330 330 330 329 328 328 327 326 326 327 328 327 326 327 327 327 326
336 336 337 337 334 334 335 334 334 334 334 333 332 331 331 332 332 331 331 331 331 330 328 328 329 329 327 327 329 330 330 329 328 327 328 328 326 328 330 331 331 330 330 329 329 330 330 330 329 328 328 327 327 326 327 328 327 326 327 327 327 326
336 336 336 336 335 333 334 334 333 334 334 333 332 332 332 333 332 331 330 330 329 328 328 328 330 329 328 328 329 330 330 329 328 328 328 328 327 327 329 330 330 330 329 328 328 329 330 329 329 329 328 328 327 327 326 327 327 326 327 327 326 326
336 336 336 336 335 333 333 333 333 333 332 331 331 331 332 333 332 331 330 331 329 328 329 329 330 330 329 329 329 329 330 328 328 328 328 328 328 328 330 331 329 328 328 328 328 329 329 329 330 329 328 328 328 328 327 326 326 326 327 326 326 326
334 336 337 336 336 334 333 333 332 330 330 330 330 330 331 332 332 332 331 332 332 330 329 329 329 330 330 329 327 327 328 328 328 329 328 328 328 328 330 330 329 328 328 328 329 329 329 329 329 329 328 328 328 327 328 327 325 326 326 326 326 326
332 335 337 336 335 333 332 332 330 330 330 330 330 330 331 332 332 332 332 332 333 331 329 329 329 330 330 329 327 328 328 328 328 329 328 328 329 328 328 329 329 328 328 328 328 329 329 329 328 328 328 328 328 327 328 327 325 325 325 326 326 326
331 334 336 335 334 332 330 330 330 330 331 330 330 330 330 331 331 331 332 332 333 331 329 329 330 330 330 329 328 329 329 328 328 329 328 329 329 328 328 329 329 328 329 329 328 329 329 329 328 327 327 328 328 327 327 327 326 325 324 325 326 325
329 333 335 334 333 331 329 329 329 329 331 329 328 329 330 330 331 331 332 333 332 331 330 331 331 330 331 330 329 329 328 328 329 329 328 328 328 329 328 330 330 328 329 329 328 329 330 329 328 327 326 327 327 327 327 327 326 326 325 324 325 325
329 332 334 334 332 331 329 328 329 329 330 329 328 329 330 330 330 331 331 332 332 331 331 332 331 331 331 330 329 329 328 328 329 329 328 328 329 329 329 330 330 328 329 329 328 328 330 330 329 327 327 327 327 327 326 326 326 326 326 325 324 324
331 332 334 333 332 331 331 330 330 329 329 329 329 330 330 330 330 330 331 331 332 331 331 332 331 331 331 330 329 329 328 328 329 329 328 328 329 330 329 330 331 329 329 329 328 329 329 329 329 328 327 327 327 327 326 326 326 326 326 326 325 325
331 331 333 333 332 331 332 331 330 329 328 328 330 331 330 329 329 330 330 331 332 331 330 331 332 330 329 330 330 329 328 329 330 329 329 330 330 330 330 331 331 330 329 328 329 329 328 328 328 328 328 327 327 328 327 327 327 326 326 326 326 325
332 332 333 332 331 331 332 332 331 330 329 329 330 331 330 329 329 330 330 331 332 331 330 331 331 330 330 331 330 329 328 329 329 329 329 330 330 329 329 330 330 329 329 328 328 328 328 327 328 328 328 327 327 328 327 327 327 327 326 326 326 326
333 333 333 333 331 331 331 332 332 331 331 330 331 331 331 330 330 330 331 331 332 332 331 331 331 331 332 331 329 327 327 327 327 328 328 328 328 328 328 328 329 329 328 328 328 328 327 328 328 328 328 328 328 328 327 327 327 326 325 325 326 326
334 334 334 334 333 333 333 333 333 332 331 331 332 330 329 331 331 331 331 331 331 331 332 332 332 332 331 329 326 325 325 325 326 327 326 326 327 328 328 327 327 328 327 327 328 327 327 328 328 328 328 328 328 328 327 327 327 326 325 326 326 326
332 331 332 333 335 335 334 334 333 332 331 332 333 330 329 330 331 331 331 331 331 331 331 332 332 331 329 327 326 324 323 324 326 326 325 325 326 327 328 327 327 327 327 326 327 326 326 327 327 327 327 327 328 328 327 327 327 326 325 326 326 327
Wind_Speed
19 19 20 20 20 19 18 19 19 19 19 19 19 18 17 17 17 18 18 17 16 16 16 15 15 15 14 14 13 13 11 10 11 13 14 14 15 15 16 19 22 23 22 21 21 19 15 11 6 3 4 6 6 7 9 10 11 11 9 9 9 8
18 21 23 22 21 20 20 20 20 21 21 21 20 19 18 18 19 20 20 18 17 16 15 15 14 13 13 13 12 12 12 11 12 13 14 15 15 15 16 18 20 20 19 20 21 19 15 11 7 4 3 5 5 6 8 9 11 12 9 8 8 7
22 23 25 24 23 21 21 21 22 22 22 22 22 20 20 19 20 22 21 19 18 16 14 14 13 12 12 12 12 12 12 11 11 13 14 15 15 15 15 17 19 19 20 20 20 18 15 11 7 3 2 3 4 5 7 8 10 12 10 7 6 6
27 26 25 25 24 21 20 21 21 22 22 23 23 22 21 20 22 23 21 19 19 17 15 14 12 11 11 12 12 13 13 12 11 12 15 16 16 16 15 16 18 20 21 20 18 16 14 11 7 4 2 1 2 3 5 6 8 10 11 8 6 5
26 26 25 24 22 20 20 20 21 22 22 23 23 23 22 21 22 23 21 20 18 18 16 14 12 11 10 10 11 12 13 12 12 12 15 17 16 16 16 16 17 19 20 17 15 14 13 10 7 5 3 2 1 2 3 5 6 8 9 7 6 5
24 26 25 23 21 20 20 21 22 23 23 23 24 24 23 22 23 23 22 19 18 18 17 15 13 12 11 9 9 11 11 11 12 13 16 18 17 17 17 16 16 17 18 16 14 13 12 10 8 6 5 3 3 2 2 3 5 7 8 7 5 4
23 25 25 23 22 21 21 21 22 23 23 24 24 24 24 23 23 23 21 19 18 18 16 14 14 13 11 10 9 10 11 11 12 14 17 19 19 17 17 16 16 16 16 15 13 12 11 9 8 7 6 5 4 4 4 4 4 5 7 6 5 4
23 23 24 23 23 23 22 22 22 23 23 24 24 23 23 23 23 22 20 18 18 17 15 14 14 13 12 11 10 10 11 11 12 14 17 20 20 18 17 16 15 15 14 13 12 11 9 8 8 8 7 6 5 6 6 6 4 4 5 5 4 3
24 24 25 24 24 24 23 22 23 23 23 23 22 22 22 21 22 21 19 19 18 16 14 14 15 14 12 11 11 10 10 11 12 14 16 18 19 18 17 16 14 13 12 12 12 10 8 6 7 9 9 7 7 7 8 8 6 4 3 3 2 2
24 24 26 25 25 25 24 23 23 22 22 22 22 21 21 21 20 20 19 19 18 16 14 14 15 14 13 11 11 12 12 13 15 15 15 16 17 17 16 15 14 13 13 12 11 9 8 7 7 9 9 9 9 10 10 8 5 3 1 2 2 3
25 25 27 26 26 26 24 23 23 22 22 23 22 21 21 20 20 19 18 18 18 16 15 14 15 14 13 12 13 15 15 16 17 18 17 16 16 16 16 14 14 15 15 13 11 9 8 7 7 8 9 10 11 11 10 8 6 4 3 2 2 3
26 26 27 26 26 25 23 23 23 22 22 23 22 22 21 20 20 19 18 18 17 16 16 15 15 14 13 14 15 16 17 17 17 17 16 16 15 15 15 14 14 15 15 13 11 10 8 8 7 6 8 10 11 11 9 8 8 6 5 4 3 2
26 27 27 27 26 25 23 22 22 22 22 22 22 22 21 20 19 19 19 18 17 17 16 16 15 15 14 15 16 16 17 16 15 14 13 14 13 13 12 12 12 12 13 12 10 9 9 9 7 5 6 8 10 9 8 9 8 7 6 4 3 2
27 27 27 27 26 25 23 22 23 22 22 22 22 22 20 19 19 19 19 19 18 17 16 17 16 15 15 15 15 15 14 13 13 12 11 12 12 12 11 11 12 11 11 10 8 9 9 9 7 5 5 6 8 8 7 8 7 7 6 4 3 2
26 27 28 27 26 25 24 23 23 22 22 21 21 21 20 19 19 19 20 19 18 17 17 18 17 17 17 16 15 15 14 12 11 12 12 12 14 14 13 13 13 11 11 10 9 10 10 9 7 6 6 7 8 7 7 7 7 8 7 5 4 3
26 28 28 27 26 25 25 24 23 22 22 21 20 20 20 19 19 20 20 19 18 17 17 18 18 19 18 17 16 15 14 13 12 12 13 14 15 16 16 15 13 11 11 11 10 10 11 10 8 7 6 7 7 7 8 8 7 9 9 7 6 5
26 28 29 27 26 26 26 25 23 22 22 20 19 19 19 19 20 21 21 20 20 19 18 19 21 20 19 17 16 15 14 13 13 13 14 15 15 16 15 14 14 12 10 10 10 10 10 9 8 6 6 6 6 6 7 7 8 9 9 8 7 5
27 29 30 28 27 28 26 25 24 23 22 20 19 19 19 20 21 21 21 21 20 20 19 21 22 21 19 17 16 15 14 14 14 13 13 14 15 15 14 13 13 12 10 9 9 9 9 9 7 6 7 7 6 6 7 7 8 9 9 8 7 6
28 31 30 28 29 29 26 25 25 23 23 22 21 21 20 21 22 21 22 21 21 21 21 22 22 21 19 17 16 15 14 15 15 14 14 15 16 17 15 14 13 12 11 9 7 8 9 9 8 7 7 8 7 6 6 7 8 8 9 8 8 8
30 30 29 28 29 28 27 27 26 24 24 23 22 22 21 21 21 22 22 21 22 23 22 22 21 20 20 18 17 16 16 16 16 15 14 15 18 17 15 15 14 12 12 11 9 8 9 9 8 8 8 7 7 7 6 6 7 8 9 9 8 9
29 29 28 28 29 28 28 29 28 26 25 23 23 22 20 20 20 21 21 21 23 23 22 22 20 20 20 19 18 17 18 18 16 14 14 16 17 16 14 13 13 12 13 12 11 10 10 9 8 8 9 8 7 7 6 6 6 7 8 7 8 9
27 28 29 27 28 30 29 30 29 27 25 23 22 20 19 19 20 20 21 22 23 23 21 20 20 20 20 19 18 18 19 18 16 15 15 17 17 15 14 13 13 13 13 11 10 11 11 9 8 7 8 8 8 8 6 5 5 5 6 6 7 8
26 28 30 26 27 30 30 30 28 25 23 22 21 20 19 19 19 20 21 23 24 24 22 20 21 21 20 20 18 18 19 18 17 16 16 17 16 15 14 14 14 13 13 11 10 11 11 10 9 8 9 9 9 9 7 5 5 5 6 7 7 8
26 28 29 27 26 29 30 28 25 23 22 21 20 20 20 20 20 20 22 23 24 24 23 22 21 20 20 20 18 18 19 18 17 16 15 15 15 15 14 14 14 13 13 14 13 13 12 12 10 9 10 9 8 9 8 8 9 7 7 8 8 9
26 27 28 27 26 27 28 26 24 24 23 22 21 21 22 23 22 22 23 23 24 23 23 23 21 20 20 19 18 18 19 18 16 15 14 14 13 14 14 13 13 13 14 14 14 14 14 13 10 9 10 7 7 8 9 11 11 8 8 9 8 8
25 26 27 26 25 24 26 27 26 25 24 24 24 23 24 24 23 24 24 23 23 23 23 23 21 20 20 18 18 18 18 17 15 14 14 13 13 14 14 13 13 14 14 14 13 13 14 14 12 11 11 9 6 6 9 13 13 10 9 9 9 9
24 26 27 26 23 22 24 27 26 24 24 25 24 23 24 24 23 23 23 22 23 24 24 23 22 21 20 19 18 18 18 16 13 13 15 14 15 15 15 15 15 15 15 15 15 14 15 15 14 14 13 11 9 6 7 11 12 12 13 12 10 11
22 24 26 24 23 22 24 26 25 24 25 24 21 19 21 24 23 23 23 22 23 24 25 24 22 21 21 20 19 19 18 16 13 14 16 16 16 17 17 17 17 16 16 16 16 14 15 16 16 15 14 12 10 7 8 10 9 11 14 16 15 13
23 25 25 24 23 22 24 25 24 24 24 23 20 18 19 23 24 23 23 22 22 24 25 24 22 21 20 19 18 18 18 16 15 16 17 17 17 18 18 18 18 18 17 17 16 13 14 15 15 14 14 14 10 8 10 11 10 11 13 17 18 16
24 26 26 25 24 23 24 26 24 24 24 23 22 21 21 23 25 23 22 23 22 24 25 23 21 20 19 18 18 18 18 17 17 18 18 18 18 18 18 17 18 19 18 17 17 15 14 14 14 14 14 15 13 11 13 14 13 13 14 15 17 18
23 24 26 26 24 24 25 27 25 24 25 25 24 24 24 25 26 25 25 25 24 24 24 22 20 19 19 18 18 18 18 18 18 18 18 19 19 18 17 17 17 17 18 17 17 16 15 14 14 15 15 16 15 13 12 12 13 14 15 15 15 18
22 22 25 25 24 24 25 26 26 25 25 25 25 26 26 26 27 27 27 27 25 23 23 22 20 20 21 20 19 18 18 19 18 17 18 19 18 17 17 17 16 16 18 18 16 16 17 16 15 16 16 16 15 14 11 10 11 12 13 13 13 17
22 22 24 24 23 23 24 25 25 25 25 24 25 26 26 26 27 28 27 27 26 24 22 22 21 23 22 19 18 18 18 19 18 18 18 18 17 17 17 17 16 17 18 18 16 16 17 16 15 15 15 16 15 14 12 11 11 11 12 12 12 15
22 22 24 23 22 22 22 23 24 25 24 23 25 25 26 26 27 27 27 27 26 25 23 23 23 23 20 18 18 17 17 18 18 19 19 18 16 16 16 16 16 17 18 18 16 16 17 16 14 14 14 15 14 13 12 12 12 13 14 13 13 16
23 24 25 23 21 20 19 20 22 24 24 24 24 24 26 26 26 27 27 26 26 25 23 23 23 21 19 19 18 17 17 17 18 19 19 18 16 15 16 17 16 16 17 17 16 16 16 15 14 15 15 14 13 13 13 13 13 13 14 13 13 16
23 25 26 24 21 21 21 22 24 24 25 26 25 23 25 27 27 27 27 26 26 24 23 23 22 21 19 18 18 18 18 18 19 19 18 17 16 15 16 17 16 16 16 17 17 16 16 15 14 15 16 15 14 13 13 14 14 14 13 14 14 16
19 20 23 24 23 23 22 23 25 26 26 26 25 23 25 27 27 27 28 26 25 24 23 23 22 20 20 19 19 19 19 19 20 20 18 16 16 16 16 16 16 16 16 17 17 16 16 15 14 15 15 15 14 14 14 14 15 15 14 14 15 16
Wind_Direction
175 175 173 167 163 157 156 163 171 176 179 182 181 181 179 174 174 171 168 168 163 160 159 158 163 168 168 169 165 152 148 155 160 161 159 151 142 134 128 133 144 150 144 140 139 132 123 123 142 153 114 86 68 53 42 40 34 31 43 55 61 66
191 188 182 175 170 163 163 167 172 177 180 183 182 180 177 174 176 172 170 170 166 164 162 160 161 165 167 171 171 162 157 160 161 162 163 156 146 141 135 132 139 150 150 144 141 137 135 139 156 175 115 86 72 60 46 41 34 30 38 48 52 58
191 187 181 176 173 169 168 170 174 178 180 183 184 181 177 177 177 173 171 171 168 166 166 164 161 161 164 171 176 170 167 168 162 164 170 162 151 146 143 136 134 142 147 146 141 139 143 145 156 176 119 89 75 63 46 36 29 27 32 38 43 51
187 182 179 176 174 171 171 174 178 180 182 185 184 181 179 180 178 175 175 173 170 168 170 170 164 164 165 169 174 173 174 174 165 166 174 169 157 151 149 144 137 137 143 145 141 142 149 152 163 183 177 150 80 55 38 26 18 19 25 29 30 35
193 185 182 181 178 176 176 179 182 183 185 187 185 183 181 182 179 179 179 176 173 172 173 173 171 172 171 171 173 175 178 177 170 168 175 173 162 156 154 151 146 144 147 150 146 145 149 155 172 190 204 229 305 36 34 15 4 8 13 17 17 13
197 190 186 186 185 184 184 184 186 186 188 188 186 184 183 183 182 183 183 181 178 176 177 176 175 174 173 173 173 173 176 179 177 173 176 175 168 162 159 157 155 153 154 156 151 148 149 154 174 193 209 239 278 317 345 341 349 359 2 6 7 360
197 194 191 190 191 191 190 190 190 190 190 190 187 186 186 184 185 186 187 186 183 181 180 177 173 169 169 169 169 170 174 182 184 179 178 176 172 167 162 162 163 162 161 160 159 158 154 159 182 204 219 234 263 275 281 297 321 346 351 355 358 359
201 198 197 196 197 196 195 195 195 194 192 191 190 189 188 186 187 188 190 189 186 185 181 175 171 166 164 163 165 169 175 186 188 182 179 176 175 171 166 167 170 171 171 169 172 170 157 162 189 208 226 232 245 257 268 281 291 316 323 325 341 359
207 202 203 202 201 199 197 197 199 197 193 193 193 193 192 190 189 191 192 190 188 189 182 175 171 166 163 161 164 166 168 173 173 174 176 176 175 174 171 174 177 179 181 182 181 171 157 170 196 209 226 238 241 251 268 276 280 297 312 308 333 16
211 207 206 206 203 201 199 200 202 199 194 194 196 198 197 194 194 196 195 192 190 190 185 178 172 167 163 161 164 161 154 149 150 154 159 163 169 172 173 176 179 181 185 185 180 171 169 189 205 211 224 240 244 253 266 267 266 279 312 342 356 35
211 211 209 207 205 203 201 203 206 201 196 196 198 201 202 199 199 201 200 197 194 192 189 182 175 169 163 163 165 159 152 147 146 148 149 152 159 164 164 164 167 171 176 177 176 175 182 202 216 218 224 236 242 249 257 254 250 249 254 292 326 6
210 211 210 207 207 206 204 208 208 203 199 198 200 202 203 202 202 204 206 203 198 194 190 186 181 173 167 168 168 160 155 151 148 150 154 156 156 155 157 161 165 167 169 171 177 180 188 212 223 223 225 235 242 245 245 244 244 239 236 252 266 310
209 210 210 208 208 209 210 213 210 203 201 201 201 203 204 202 203 204 206 206 202 197 192 189 184 176 173 174 171 163 156 151 148 151 157 160 157 156 162 170 175 177 176 174 181 191 201 214 218 217 225 241 246 242 240 240 238 231 226 237 246 245
208 208 210 209 209 211 213 215 210 204 204 204 203 205 206 205 205 205 205 206 205 202 197 192 186 179 177 175 171 163 155 148 145 151 158 163 164 170 178 182 184 188 188 185 193 207 216 219 218 219 229 245 244 238 235 234 233 231 233 238 236 228
209 208 209 209 209 212 215 214 208 207 209 208 205 207 209 208 208 207 207 207 208 208 201 193 186 181 178 175 171 163 159 154 150 156 165 171 173 178 186 188 189 192 194 197 202 212 220 225 228 228 235 240 233 229 229 230 231 232 238 240 239 244
211 208 208 208 210 214 215 212 208 209 213 211 208 208 208 209 210 211 212 211 211 209 201 193 185 181 180 176 174 170 169 165 159 166 173 178 179 181 186 187 190 196 201 203 203 210 219 227 233 227 227 225 215 219 229 232 229 231 236 236 237 232
211 208 208 208 212 216 215 212 209 211 216 215 213 213 210 211 214 215 215 214 212 207 200 191 183 182 183 181 180 179 177 169 165 172 177 181 183 185 187 188 192 197 207 208 203 212 218 221 226 217 207 202 200 208 219 225 225 229 234 233 233 220
210 207 207 208 212 214 214 213 211 213 218 216 215 216 214 215 217 217 216 215 211 206 199 190 185 187 187 185 185 183 179 172 171 176 179 181 185 189 188 188 193 196 207 212 207 216 220 215 210 200 189 180 185 199 203 212 220 224 225 228 231 215
206 206 208 209 211 210 210 214 213 215 219 215 214 213 215 217 218 219 217 214 210 205 199 191 190 193 190 188 188 185 182 179 177 179 184 186 188 191 187 184 192 198 206 207 204 214 216 210 197 190 188 178 176 188 189 194 207 215 220 227 225 211
204 208 209 208 210 209 209 214 215 216 217 215 214 210 212 217 218 220 216 211 207 202 199 195 195 197 192 191 191 187 185 186 185 182 186 190 190 193 189 185 193 202 207 199 192 201 206 205 197 184 177 171 170 172 172 181 196 209 220 228 224 212
205 210 208 204 209 211 210 215 216 214 212 212 212 209 209 213 216 216 209 204 201 198 199 198 198 196 192 192 193 189 187 190 188 180 184 192 190 191 190 190 195 201 208 203 191 189 195 203 201 185 172 164 165 166 166 175 189 204 216 227 222 210
207 209 208 204 207 209 210 214 216 216 210 206 210 210 209 210 211 208 201 198 198 198 200 199 199 198 193 192 192 191 190 192 188 179 184 192 191 190 192 196 199 198 201 205 201 193 194 204 202 197 189 176 168 167 167 178 187 201 210 212 207 201
209 209 209 206 206 208 208 210 215 217 212 207 209 211 213 214 209 202 197 197 199 202 202 203 205 203 198 195 192 192 191 192 191 184 187 192 192 194 197 201 203 199 194 196 205 199 195 204 202 196 189 182 181 175 163 171 191 199 202 203 202 199
209 211 210 207 207 209 208 207 211 213 212 210 208 209 214 215 211 202 197 198 201 204 205 207 207 205 203 198 194 193 190 191 192 189 190 194 196 199 204 206 204 201 198 198 200 193 192 201 202 197 188 178 183 185 173 176 191 193 189 197 204 201
209 213 213 208 205 209 208 203 201 203 208 211 209 209 211 211 210 204 200 201 202 204 206 207 206 206 205 200 197 195 191 191 191 189 193 197 200 204 208 209 207 203 205 210 207 193 192 195 195 209 213 195 178 192 198 190 189 189 189 194 197 196
210 214 215 209 204 207 207 200 198 198 202 208 209 210 210 208 206 203 200 201 202 204 206 206 206 207 205 199 198 197 195 194 190 189 195 199 201 204 206 206 207 206 205 212 214 203 195 190 187 201 218 223 213 218 212 192 180 177 185 194 193 189
210 214 215 211 206 207 205 200 198 198 200 207 208 209 210 207 205 204 201 201 201 203 207 206 205 205 202 199 198 200 201 197 192 193 196 198 201 202 203 204 208 209 205 205 209 207 199 193 192 194 204 218 230 246 224 201 190 180 177 184 192 191
207 209 211 209 207 204 202 199 197 199 203 207 209 211 212 209 206 205 202 202 203 203 205 205 203 201 198 200 201 202 203 197 195 198 195 198 203 201 200 204 207 206 205 205 204 203 200 202 201 197 199 206 219 233 215 210 216 202 182 176 183 190
203 204 203 203 201 197 198 200 200 202 203 204 210 215 215 211 207 205 203 203 203 203 203 203 202 200 200 203 203 202 201 195 196 198 194 197 201 200 201 203 204 201 201 203 204 202 202 208 208 203 204 203 204 204 190 196 213 214 197 181 182 189
198 199 196 195 195 191 193 200 203 205 202 202 209 214 214 209 204 204 205 204 202 201 202 201 201 200 201 206 203 200 196 191 195 196 194 197 197 198 200 200 201 201 200 200 200 202 204 208 209 208 212 209 206 198 186 192 201 203 206 196 190 191
196 196 193 191 193 191 190 195 201 205 204 203 207 211 212 206 201 202 202 203 203 202 201 199 198 198 198 202 200 195 191 189 195 196 192 195 195 196 196 195 197 200 202 203 201 200 202 205 205 206 212 215 219 218 210 210 205 197 201 203 198 193
199 196 193 190 191 192 192 196 201 205 205 206 210 213 212 205 200 200 201 203 205 204 202 195 194 196 193 194 195 193 192 189 192 195 191 191 192 193 193 192 195 197 200 204 203 200 200 201 203 205 210 215 221 226 230 231 220 205 200 206 210 196
207 198 194 191 192 196 201 204 206 207 206 208 212 215 215 207 200 199 200 204 205 203 200 194 193 195 191 191 195 195 194 189 189 192 188 188 191 193 193 193 194 196 198 200 201 203 202 203 205 206 209 214 217 219 222 224 221 216 206 204 215 200
217 206 197 194 197 202 208 212 214 214 213 214 215 216 216 209 201 200 199 202 203 199 197 196 195 194 191 194 197 196 193 187 188 191 188 188 193 194 195 195 196 198 199 200 202 205 206 206 206 206 208 213 216 215 213 213 214 217 212 205 208 200
220 216 206 199 201 207 213 218 221 222 221 221 219 218 218 213 206 203 201 200 201 199 195 196 195 194 194 196 195 193 193 189 189 193 192 192 194 195 196 196 197 199 199 200 204 207 206 206 205 204 207 213 218 213 207 209 209 213 216 211 208 204
220 220 214 209 207 212 219 223 227 228 224 223 222 217 217 215 210 206 204 202 201 198 196 197 196 196 198 198 194 191 193 191 190 193 195 195 195 195 196 197 198 199 199 202 205 206 204 204 206 208 209 214 216 212 206 206 207 209 213 214 214 212
226 230 225 221 215 213 220 228 232 231 226 223 222 217 212 212 210 206 204 203 200 196 197 197 198 200 200 198 193 192 192 190 191 194 196 197 196 193 193 196 198 197 201 205 205 208 207 203 204 208 211 213 213 211 209 206 206 209 210 211 215 214